Location: Asheville, NC
(35.6000°N, 82.5500°W)
Time: 16:40:22
(UTC-05:00)

KAITUO 1B - Pass Details

Date: 05 January 2018
Orbit: 500 x 521 km, 97.5° (Epoch: 19 January)

Event Time Altitude Azimuth Distance (km) Brightness Sun altitude
Rises 18:22:52 0° 179° (S) 2,628 ? -10.4°
Reaches altitude 10° 18:25:01 10° 185° (S) 1,746 ? -10.8°
Maximum altitude 18:28:39 47° 261° (W) 692 ? -11.5°
Drops below altitude 10° 18:32:20 10° 336° (NNW) 1,758 ? -12.2°
Sets 18:34:30 0° 342° (NNW) 2,648 ? -12.6°
